This is the latest recevied weather packets stored in our database for station/object N6DZK. If no packets are shown the sender has not sent any weather packets the latest 10 day(s).
| Time | Temp. | Humidity | Pressure | Rain* | Wind** | Luminosity | Snow |
|---|---|---|---|---|---|---|---|
| 1788136147 | 80° F | 41% | 758.7 mmHg | 0 in | - | 234 W/m² | - |
| 1788135846 | 81° F | 42% | 758.8 mmHg | 0 in | - | 306 W/m² | - |
| 1788135543 | 82° F | 40% | 758.7 mmHg | 0 in | - | 325 W/m² | - |
| 1788135243 | 82° F | 40% | 758.8 mmHg | 0 in | - | 332 W/m² | - |
| 1788134940 | 82° F | 38% | 758.5 mmHg | 0 in | - | 339 W/m² | - |
| 1788134635 | 82° F | 39% | 758.6 mmHg | 0 in | - | 351 W/m² | - |
| 1788134333 | 83° F | 37% | 758.6 mmHg | 0 in | - | 366 W/m² | - |
| 1788134028 | 83° F | 37% | 758.5 mmHg | 0 in | - | 384 W/m² | - |
| 1788133724 | 83° F | 37% | 758.5 mmHg | 0 in | - | 403 W/m² | - |
| 1788133420 | 82° F | 39% | 758.7 mmHg | 0 in | - | 399 W/m² | - |
| 1788133115 | 83° F | 37% | 758.6 mmHg | 0 in | - | 266 W/m² | - |
| 1788132811 | 84° F | 35% | 758.7 mmHg | 0 in | - | 120 W/m² | - |
| 1788132506 | 85° F | 35% | 758.8 mmHg | 0 in | - | 464 W/m² | - |
| 1788132202 | 86° F | 35% | 758.6 mmHg | 0 in | - | 509 W/m² | - |
| 1788131898 | 84° F | 36% | 758.7 mmHg | 0 in | - | 531 W/m² | - |
| 1788131598 | 84° F | 36% | 758.8 mmHg | 0 in | - | 552 W/m² | - |
| 1788131293 | 84° F | 36% | 758.8 mmHg | 0 in | - | 227 W/m² | - |
| 1788130988 | 85° F | 34% | 758.8 mmHg | 0 in | - | 277 W/m² | - |
| 1788130688 | 86° F | 35% | 758.8 mmHg | 0 in | - | 326 W/m² | - |
| 1788130383 | 87° F | 31% | 758.8 mmHg | 0 in | - | 512 W/m² | - |
| 1788130082 | 88° F | 32% | 758.9 mmHg | 0 in | - | 639 W/m² | - |
| 1788129777 | 87° F | 32% | 758.8 mmHg | 0 in | - | 651 W/m² | - |
| 1788129474 | 87° F | 32% | 758.8 mmHg | 0 in | - | 666 W/m² | - |
| 1788129169 | 88° F | 32% | 758.9 mmHg | 0 in | - | 684 W/m² | - |
| 1788128864 | 89° F | 31% | 759 mmHg | 0 in | - | 711 W/m² | - |
* Rain latest hour (hover to see other rain measurements)
** Current wind speed in m/s (hover to see current wind gust speed)